Location: Newark
(44.1667°N, 8.2500°E)
Time: 00:07:00
(UTC+00:00)

S-56A Canister/Altair - Pass Details

Date: 10 December 2019
Orbit: 634 x 2498 km, 38.9° (Epoch: 17 January)

Event Time Altitude Azimuth Distance (km) Brightness Sun altitude
Rises 14:04:07 0° 278° (W) 6,179 12.6 13.1°
Reaches altitude 10° 14:08:19 10° 275° (W) 5,146 12.3 12.6°
Maximum altitude 14:22:33 57° 203° (SSW) 2,465 10.8 11.0°
Drops below altitude 10° 14:33:21 10° 129° (SE) 3,982 11.2 9.6°
Sets 14:36:11 0° 125° (SE) 4,741 11.5 9.3°
